Tracking 19706 objects as of 16-Jun-2019
HD Live streaming from Space Station
objects crossing your sky now

UNITE

Track UNITE now!
10-day predictions


NORAD ID: 44031
Int'l Code: 1998-067PX
Perigee: 404.8 km
Apogee: 410.1 km
Inclination: 51.6 °
Period: 92.6 minutes
Semi major axis: 6778 km
RCS: Unknown
Launch date: November 20, 1998
Source: United States (US)
Launch site: TYURATAM MISSILE AND SPACE COMPLEX (TTMTR)
aabbcc
Your satellite tracking list
Your tracking list is empty




NASA's NSSDC Master Catalog

Two Line Element Set (TLE):
1 44031U 98067PX  19167.00791241  .00004926  00000-0  77351-4 0  9998
2 44031  51.6395   4.8887 0003915 128.5103 231.6240 15.55632457 21123
Source of the keplerian elements: AFSPC